Muenchen, Germany

4:46 AM CET on February 06, 2016 (GMT +0100)
Munich Airport

Weather History for EDDM - August, 2013

Change the Weather History Date:

Thursday, August 8, 2013

  Actual Average Record
Temperature  
Mean Temperature 70 °F -  
Max Temperature 78 °F 71 °F 95 °F (2015)
Min Temperature 62 °F 52 °F 50 °F (2005)
Cooling Degree Days 5    
Growing Degree Days 20 (Base 50)    
Moisture  
Dew Point 60 °F    
Average Humidity 71    
Maximum Humidity 88    
Minimum Humidity 51    
Precipitation  
Precipitation 0.00 in 0.12 in - ()
Sea Level Pressure  
Sea Level Pressure 30.02 in    
Wind  
Wind Speed 7 mph ()    
Max Wind Speed 14 mph    
Max Gust Speed -    
Visibility 6.2 miles    
Events      
Averages and records for this station are not official NWS values.
T = Trace of Precipitation, MM = Missing Value Source: Averaged Metar Reports

Daily Weather History Graph

Daily Weather History Graph

Search for Another Location

Airport or City:

Trip Planner

Search our weather history database for the weather conditions in past years. The results will help you decide how hot, cold, wet, or windy it might be!

Date:

Astronomy

Aug. 08, 2013 Rise Set
Actual Time 5:58 AM CEST 8:38 PM CEST
Civil Twilight 5:22 AM CEST 9:13 PM CEST
Nautical Twilight 4:37 AM CEST 9:58 PM CEST
Astronomical Twilight 3:44 AM CEST 10:50 PM CEST
Moon 7:40 AM CEST (8/8) 8:53 PM CEST (8/8)
Length of Visible Light 15h 51m
Length of Day
14h 40m
New Moon, 2% of the Moon is Illuminated
Aug 8
New Moon
Aug 14
First Quarter
Aug 21
Full
Aug 28
Last Quarter
Sep 5
New

Hourly Weather History & Observations

Time (CEST) Temp. Dew Point Humidity Pressure Visibility Wind Dir Wind Speed Gust Speed Precip Events Conditions
12:20 AM 73.4 °F 64.4 °F 73% 29.89 in - West 8.1 mph - N/A   Clear
12:50 AM 71.6 °F 64.4 °F 78% 29.92 in - West 11.5 mph - N/A   Clear
1:20 AM 71.6 °F 60.8 °F 69% 29.95 in - West 12.7 mph - N/A   Clear
1:50 AM 69.8 °F 60.8 °F 73% 29.95 in 6.2 mi West 12.7 mph - N/A   Overcast
2:20 AM 69.8 °F 59.0 °F 68% 29.95 in 6.2 mi West 12.7 mph - N/A   Mostly Cloudy
2:50 AM 68.0 °F 59.0 °F 73% 29.98 in 6.2 mi West 12.7 mph - N/A   Mostly Cloudy
3:20 AM 68.0 °F 59.0 °F 73% 29.95 in 6.2 mi NW 9.2 mph - N/A   Mostly Cloudy
3:50 AM 68.0 °F 57.2 °F 68% 29.98 in - West 5.8 mph - N/A   Clear
4:20 AM 64.4 °F 59.0 °F 83% 29.98 in - West 8.1 mph - N/A   Clear
4:50 AM 64.4 °F 59.0 °F 83% 29.98 in - West 3.5 mph - N/A   Clear
5:20 AM 62.6 °F 59.0 °F 88% 29.98 in - SW 4.6 mph - N/A   Clear
5:50 AM 64.4 °F 60.8 °F 88% 29.98 in - WSW 4.6 mph - N/A   Clear
6:20 AM 62.6 °F 59.0 °F 88% 29.98 in 6.2 mi SSW 3.5 mph - N/A   Mostly Cloudy
6:50 AM 64.4 °F 60.8 °F 88% 29.98 in 6.2 mi West 3.5 mph - N/A   Mostly Cloudy
7:20 AM 64.4 °F 60.8 °F 88% 29.98 in 6.2 mi Variable 2.3 mph - N/A   Mostly Cloudy
7:50 AM 66.2 °F 59.0 °F 78% 30.01 in - West 8.1 mph - N/A   Clear
8:20 AM 68.0 °F 59.0 °F 73% 30.01 in - West 5.8 mph - N/A   Clear
8:50 AM 68.0 °F 59.0 °F 73% 30.01 in - West 8.1 mph - N/A   Clear
9:20 AM 68.0 °F 59.0 °F 73% 30.01 in - NW 4.6 mph - N/A   Clear
9:50 AM 69.8 °F 59.0 °F 68% 30.01 in - NW 4.6 mph - N/A   Clear
10:20 AM 69.8 °F 59.0 °F 68% 30.04 in - Variable 2.3 mph - N/A   Clear
10:50 AM 71.6 °F 59.0 °F 64% 30.04 in 6.2 mi WNW 3.5 mph - N/A   Mostly Cloudy
11:20 AM 71.6 °F 59.0 °F 64% 30.04 in 6.2 mi West 6.9 mph - N/A   Mostly Cloudy
11:50 AM 71.6 °F 59.0 °F 64% 30.04 in - West 6.9 mph - N/A   Clear
12:20 PM 71.6 °F 59.0 °F 64% 30.01 in - NNW 5.8 mph - N/A   Clear
12:50 PM 73.4 °F 59.0 °F 61% 30.01 in - ENE 3.5 mph - N/A   Clear
1:20 PM 73.4 °F 60.8 °F 65% 30.01 in - Variable 2.3 mph - N/A   Clear
1:50 PM 75.2 °F 59.0 °F 57% 30.01 in - NNW 6.9 mph - N/A   Clear
2:20 PM 77.0 °F 59.0 °F 54% 30.01 in - NNE 4.6 mph - N/A   Clear
2:50 PM 77.0 °F 60.8 °F 57% 30.01 in - Variable 3.5 mph - N/A   Clear
3:20 PM 77.0 °F 59.0 °F 54% 30.01 in - NNE 3.5 mph - N/A   Clear
3:50 PM 78.8 °F 59.0 °F 51% 30.04 in - Variable 3.5 mph - N/A   Clear
4:20 PM 78.8 °F 59.0 °F 51% 30.04 in 6.2 mi West 11.5 mph - N/A   Mostly Cloudy
4:50 PM 77.0 °F 60.8 °F 57% 30.04 in 6.2 mi WNW 13.8 mph - N/A   Mostly Cloudy
5:20 PM 75.2 °F 60.8 °F 61% 30.04 in 6.2 mi NW 11.5 mph - N/A   Scattered Clouds
5:50 PM 75.2 °F 60.8 °F 61% 30.04 in - NW 6.9 mph - N/A   Clear
6:20 PM 73.4 °F 60.8 °F 65% 30.04 in - West 9.2 mph - N/A   Clear
6:50 PM 73.4 °F 60.8 °F 65% 30.04 in - WNW 9.2 mph - N/A   Clear
7:20 PM 71.6 °F 62.6 °F 73% 30.06 in - WNW 8.1 mph - N/A   Clear
7:50 PM 71.6 °F 62.6 °F 73% 30.06 in - NW 6.9 mph - N/A   Clear
8:20 PM 71.6 °F 64.4 °F 78% 30.06 in - NW 8.1 mph - N/A   Clear
8:50 PM 71.6 °F 64.4 °F 78% 30.06 in - WNW 6.9 mph - N/A   Clear
9:20 PM 71.6 °F 62.6 °F 73% 30.09 in - NNW 8.1 mph - N/A   Clear
9:50 PM 69.8 °F 62.6 °F 78% 30.09 in - NW 9.2 mph - N/A   Clear
10:20 PM 69.8 °F 62.6 °F 78% 30.09 in - NW 8.1 mph - N/A   Clear
10:50 PM 68.0 °F 62.6 °F 83% 30.09 in - NW 9.2 mph - N/A   Clear
11:20 PM 66.2 °F 62.6 °F 88% 30.09 in - North 6.9 mph - N/A   Clear
11:50 PM 66.2 °F 62.6 °F 88% 30.09 in - NNW 5.8 mph - N/A   Clear